Location: Unspecified
(41.1850°N, 73.2650°W)
Time: 08:23:46
(UTC+00:00)

ARIANE 6 FM1 Upper Stage - Pass Details

Date: 21 February 2026
Orbit: 523 x 607 km, 62.0° (Epoch: 7 March)

Event Time Altitude Azimuth Distance (km) Brightness Sun altitude
Rises 00:04:30 0° 312° (NW) 2,656 6.9 -17.8°
Reaches altitude 10° 00:06:55 10° 299° (WNW) 1,767 6.1 -18.3°
Maximum altitude 00:10:15 26° 242° (WSW) 1,054 4.7 -18.9°
Drops below altitude 10° 00:13:37 10° 184° (S) 1,778 5.2 -19.5°
Sets 00:16:03 0° 172° (S) 2,676 6.0 -20.0°
Enters shadow 00:16:04 - 172° (S) 2,682 6.0 -20.0°
